Location: ?????
(38.2579°N, 22.9711°E)
Time: 22:57:07
(UTC+00:00)

Cosmos 1745 Rocket - Pass Details

Date: 13 December 2025
Orbit: 951 x 998 km, 83.0° (Epoch: 14 January)

Event Time Altitude Azimuth Distance (km) Brightness Sun altitude
Rises 17:26:16 0° 354° (N) 3,651 7.0 -26.2°
Reaches altitude 10° 17:28:47 10° 356° (N) 2,696 6.2 -26.7°
Enters shadow 17:34:31 73° 41° (NE) 995 3.8 -27.8°
Exits shadow 17:36:57 45° 160° (SSE) 1,275 4.4 -28.3°
Drops below altitude 10° 17:41:03 10° 169° (S) 2,666 6.2 -29.1°
Sets 17:43:31 0° 171° (S) 3,608 7.0 -29.6°
